sat.trackr.live / text

‹ back to catalog

STARLINK-11632 [DTC]

NORAD 63108 · 2025-039E

PAYLOAD ACTIVE UNKNOWN

§ Identity

Operator
Country
US
Launch date
2025-02-27
Launch site
AFETR
Launch vehicle
Mass (kg)
RCS (m²)

Purposes: comms

External: N2YO · Heavens-Above · Gunter

§ Orbital elements

Epoch: 2026-09-20T22:50:54.515040Z

Period
91.67 min
Inclination
42.9993°
Eccentricity
0.0001053
Mean motion
15.70827645 rev/d
Perigee alt
355.8 km
Apogee alt
357.2 km
Semi-major
6,734.7 km
B*
2.2452e-3
RAAN
140.0037°
Arg perigee
227.8873°
Mean anomaly
132.1905°
Rev number
9,032

§ Raw data

STARLINK-11632 [DTC]1 63108U 25039E   26263.95201985  .00298070  00000+0  22452-2 0  99972 63108  42.9993 140.0037 0001053 227.8873 132.1905 15.70827645 90327

JSON: /api/v1/satellites/63108 · /tle

For live sub-satellite position, see the globe view (requires WebGL).

§ Visibility from observer

Set your observer location to see the next 7 days of passes ≥ 10°. The values pass through the URL so the page stays shareable.

No JS? Fill the form by hand. The geolocation button needs JavaScript.